Regional Weather Roundup
Issued by NWS Jackson, KY

Home | Current Version | Previous Version | Text Only | Print | Product List | Glossary On
Versions: 1 2 3 4 5 6 7 8 9 10 11 12 13 14 15 16 17 18 19 20 21 22 23 24 25 26 27
000
ASUS43 KJKL 260110
RWRJKL

EAST KENTUCKY HOURLY WEATHER ROUNDUP
NATIONAL WEATHER SERVICE JACKSON KY
900 PM EDT THU AUG 25 2016

NOTE: "FAIR" INDICATES FEW OR NO CLOUDS BELOW 12,000 FEET WITH
NO SIGNIFICANT WEATHER AND/OR OBSTRUCTIONS TO VISIBILITY.

* THESE REPORTS ARE NOT UNDER NWS QUALITY CONTROL AND MAY NOT
  REPORT WEATHER SUCH AS PRECIPITATION AND FOG.

KYZ079-080-083-085-087-088-110-112-115-119-120-260200
...EASTERN KENTUCKY...

CITY           SKY/WX    TMP DP  RH WIND       PRES   REMARKS
JACKSON        CLEAR     82  71  69 CALM      30.12F
LONDON         CLEAR     80  72  76 CALM      30.12S
SOMERSET*      CLEAR     79  72  78 CALM      30.11S
MONTICELLO*    CLEAR    N/A N/A N/A NE9       30.12S
WILLIAMSBURG*  CLEAR     79  79 100 CALM      30.12S
MIDDLESBORO*   CLEAR     77  75  94 CALM      30.13S
HARLAN APT*      N/A     75  72  88 CALM      30.15S
PIKE CO APT*     N/A     82  72  71 CALM      30.14S
BIG SANDY APT* CLEAR     83  73  70 CALM      30.11F
MOREHEAD APT*  CLEAR     81  72  74 CALM      30.11R
$$

KYZ035-036-041-042-044-050-067-078-099-260200
...CENTRAL KENTUCKY...

CITY           SKY/WX    TMP DP  RH WIND       PRES   REMARKS
MT STERLING*   CLEAR    N/A N/A N/A SW3       30.11R
FLEMING/MASON* CLEAR     80  70  71 SW5       30.09S
DANVILLE*      CLEAR     77  73  88 CALM      30.10S
LEXINGTON      CLEAR     82  72  71 CALM      30.09S
FRANKFORT      CLEAR     79  71  76 CALM      30.07R
LOUISVILLE     PTCLDY    85  69  58 W6        30.05R
LEBANON*         N/A     82  73  74 CALM      30.09R
GLASGOW*       CLEAR     79  78  95 CALM      30.08S
BOWLING GREEN  PTCLDY    85  73  67 CALM      30.07R HX  91
$$

KYZ091>093-OHZ055-061-077-WVZ005-015-034-035-042-260200
...SOUTHERN OHIO/WEST VIRGINIA...

CITY           SKY/WX    TMP DP  RH WIND       PRES   REMARKS
COVINGTON      PTCLDY    83  73  72 SW5       30.06S
COLUMBUS       CLEAR     83  72  69 SW8       30.02S
DAYTON         PTCLDY    78  70  76 W8        30.06R
WILMINGTON     CLEAR     77  74  90 SW6       30.06R
HUNTINGTON     CLEAR     82  71  69 CALM      30.07S
CHARLESTON     PTCLDY    82  70  66 SW6       30.08S
PINEVILLE*     CLEAR     74  70  87 MISG      30.20S
BECKLEY        CLEAR     75  69  81 SW5       30.20S
BLUEFIELD      CLEAR     74  69  85 W5        30.24R
LOGAN CO APT*    N/A     81  73  78 CALM      30.13S
$$

VAZ002-007-008-TNZ017-027-036-066-071-260200
...SOUTHWEST VIRGINIA/EAST TENNESSEE...

CITY           SKY/WX    TMP DP  RH WIND       PRES   REMARKS
WISE*          CLEAR     77  61  57 CALM      30.23S
JONESVILLE*      N/A     77  73  88 CALM      30.16S
ABINGDON*      CLEAR     78  72  82 CALM      30.19R
BRISTOL        PTCLDY    80  70  71 CALM      30.14F
MORRISTOWN*    PTCLDY    81  73  78 CALM      30.12F
OAK RIDGE      CLEAR     81  74  79 CALM      30.12S
CROSSVILLE     CLEAR     77  72  84 CALM      30.17S
NASHVILLE      PTCLDY    82  75  79 CALM      30.08S
$$

...KEY TO REMARKS...
VSB - VISIBILITY IN MILES
WCI - WIND CHILL INDEX
HX  - HEAT INDEX

$$




USA.gov is the U.S. government's official web portal to all federal, state and local government web resources and services.